Regional Weather Roundup
Issued by NWS

Home | Current Version | Previous Version | Graphics & Text | Print | Product List | Glossary On
Versions: 1 2 3 4 5 6 7 8 9 10 11 12 13 14 15 16 17 18 19 20 21 22 23 24 25 26 27 28 29 30 31 32 33 34 35 36 37 38 39 40 41 42 43 44 45 46 47 48 49 50
000
ASUS43 KOAX 300202
RWRNE

WEATHER ROUNDUP FOR NEBRASKA
NATIONAL WEATHER SERVICE OMAHA NE
900 PM CDT SAT AUG 29 2015

NOTES: SATELLITE DATA IS BEING USED TO AUGMENT CLOUD COVER ABOVE
       12000 FEET.
       "FAIR" INDICATES FEW OR NO CLOUDS BELOW 12,000 FEET WITH NO
       SIGNIFICANT WEATHER AND/OR OBSTRUCTIONS TO VISIBILITY.

  * THESE STATIONS DO NOT REPORT WEATHER SUCH AS RAIN...SNOW OR FOG.

NEZ001>004-019>022-054>056-300300-
NEBRASKA PANHANDLE

CITY           SKY/WX    TMP DP  RH WIND       PRES   REMARKS
SCOTTSBLUFF    CLEAR     70  49  47 E8        30.02S
ALLIANCE       CLEAR     72  44  36 S12       30.03S
CHADRON        CLEAR     75  42  30 S12       29.95S HAZE
KIMBALL        CLEAR     70  42  35 SE5       30.10S
SIDNEY         CLEAR     74  43  32 SE12      30.09R
$$

NEZ057>060-069>072-079>082-300300-
SOUTHWEST NEBRASKA

CITY           SKY/WX    TMP DP  RH WIND       PRES   REMARKS
NORTH PLATTE   CLEAR     68  63  84 E7        30.04R
IMPERIAL       CLEAR     73  51  46 SE10      30.06R
MCCOOK         CLEAR     76  56  49 E10       30.05R
$$

NEZ005>010-023>029-035>040-094-300300-
NORTH CENTRAL NEBRASKA

CITY           SKY/WX    TMP DP  RH WIND       PRES   REMARKS
VALENTINE      CLEAR     78  57  48 S8        29.97S
AINSWORTH      CLEAR     74  58  58 S8        30.01R
BROKEN BOW     CLEAR     74  64  71 S7        30.05R
O`NEILL        PTCLDY    73  67  81 S9        30.01R
ORD            CLEAR     72  62  71 SE5       30.02R
$$

NEZ041-046>049-061>064-073>077-083>087-300300-
SOUTH CENTRAL NEBRASKA

CITY           SKY/WX    TMP DP  RH WIND       PRES   REMARKS
GRAND ISLAND   CLEAR     68  63  84 SE5       30.04S
AURORA         CLEAR     66  65  97 SE6       30.04R
HASTINGS       CLEAR     70  61  73 SE6       30.04S
HEBRON         CLEAR     66  61  84 E3        30.05R
HOLDREGE       CLEAR     69  63  82 S3        30.06R
KEARNEY *      CLEAR     70  63  78 SE5       30.05R
YORK           CLOUDY    66  64  94 SE7       30.04S
$$

NEZ011>018-030>034-042>045-300300-
NORTHEAST NEBRASKA

CITY           SKY/WX    TMP DP  RH WIND       PRES   REMARKS
NORFOLK        CLEAR     69  66  90 SE7       30.02R
ALBION         CLEAR     67  64  88 CALM      30.03R
BLAIR          PTCLDY    65  62  88 CALM      30.05R
COLUMBUS *     CLEAR    N/A N/A N/A SE6       30.03R
FREMONT        PTCLDY    64  61  90 SE3       30.05R
TEKAMAH        PTCLDY    63  62  97 CALM      30.03S FOG
$$

NEZ050>053-065>068-078-088>093-300300-
SOUTHEAST NEBRASKA

CITY           SKY/WX    TMP DP  RH WIND       PRES   REMARKS
LINCOLN        CLEAR     66  61  84 SE7       30.05S
OMAHA EPPLEY   MOCLDY    67  64  90 E3        30.04R
BEATRICE       PTCLDY    63  60  91 CALM      30.05R
FALLS CITY     PTCLDY    63  61  93 NW5       30.04R
NEBRASKA CITY  CLOUDY    66  64  93 CALM      30.05R
PLATTSMOUTH    CLOUDY    65  62  91 CALM      30.05S
$$

NEZ044-045-051>053-067-300300-
OMAHA AREA

CITY           SKY/WX    TMP DP  RH WIND       PRES   REMARKS
OMAHA EPPLEY   MOCLDY    67  64  90 E3        30.04R
BLAIR          PTCLDY    65  62  88 CALM      30.05R
FREMONT        PTCLDY    64  61  90 SE3       30.05R
OFFUTT AFB     CLOUDY    68  63  85 S2        30.04R
PLATTSMOUTH    CLOUDY    65  62  91 CALM      30.05S
WAHOO          FAIR      62  60  94 S5        30.05R
$$



USA.gov is the U.S. government's official web portal to all federal, state and local government web resources and services.